Вернуться в каталог

TANSEI 3 DEB

АктивенUNKNOWN
NORAD 9982·DEBRIS·🇯🇵 Japan

Запущен Feb 19, 1977 с Uchinoura Space Center

Loading…

Ближайшие Пролёты (ближайшие 24 часа)

TLE

УстаревающийSource: Space-Track

Эпоха: Aug 18, 2026, 08:42 UTC

1 09982U 77012F   26230.36280631  .00000146  00000-0  46351-3 0  9990
2 09982  65.9040 332.5024 1719236 237.2560 105.1117 10.81081530952994

Отслеживайте TANSEI 3 DEB в реальном времени с AllMySat

Download on the App Store